{"data":{"norad_id":65129,"intl_designator":"2025-170L","name":"GEESAT-4 11","alt_names":[],"object_type":"PAYLOAD","status":"ACTIVE","operator":null,"country":"PRC","launch_date":"2025-08-08","launch_site_code":"YSLA","launch_vehicle":null,"mission":null,"orbit_class":"UNKNOWN","rcs_meters":null,"size_class":null,"mass_kg":null,"dimensions":null,"purposes":[],"wikipedia_slug":null,"has_3d_model":false,"image_url":null,"decayed_at":null,"tle_current":{"epoch":"2026-09-21T22:18:13.236768Z","epoch_age_seconds":41594,"freshness":"FRESH","line1":"1 65129U 25170L   26264.92931987  .00000982  00000+0  14293-3 0  9996","line2":"2 65129  49.9834  84.9487 0007264 103.7725 256.4023 14.84277433 60805","mean_motion":14.84277433,"eccentricity":0.0007264,"inclination_deg":49.9834,"raan_deg":84.9487,"arg_perigee_deg":103.7725,"mean_anomaly_deg":256.4023,"bstar":0.00014293,"rev_number":6080,"period_min":97.016903173519,"perigee_km":610.77435709554,"apogee_km":620.93522837203,"semimajor_km":6993.9917927338,"source":"CELESTRAK","updated_at":"2026-09-22T09:00:30.148264Z"}}}